Regional Weather Roundup
Issued by NWS Upton, NY

Home | Current Version | Previous Version | Text Only | Print | Product List | Glossary On
Versions: 1 2 3 4 5 6 7 8 9 10 11 12 13 14 15 16 17 18 19 20 21 22 23 24 25 26 27 28 29 30 31 32 33 34 35 36 37 38 39 40 41 42 43 44 45 46 47 48 49
000
ASUS41 KOKX 050404
RWROKX

REGIONAL WEATHER ROUNDUP
NATIONAL WEATHER SERVICE NEW YORK NY
1200 AM EDT WED AUG 05 2015

NOTE: "FAIR" INDICATES FEW OR NO CLOUDS BELOW 12,000 FEET WITH NO
SIGNIFICANT WEATHER AND/OR OBSTRUCTIONS TO VISIBILITY.

NYZ071-072-176-178-NJZ106-104-050500-
NEW YORK CITY METRO AREA


CITY           SKY/WX    TMP DP  RH WIND       PRES   REMARKS
CENTRAL PARK   CLEAR     79  55  43 N3        29.93S
LAGUARDIA APRT PTCLDY    79  58  48 N3        29.90R
KENNEDY INTL   MOCLDY    81  52  36 NW9       29.91S
NEWARK/LIBERTY PTCLDY    79  56  45 N6        29.90S
BRNX BOT. GARD   N/A     75  57  53 N2        29.92R
TETERBORO      CLEAR     78  55  44 CALM      29.90R
$$

NYZ177-179-078>081-050500-
LONG ISLAND NEW YORK

CITY           SKY/WX    TMP DP  RH WIND       PRES   REMARKS
FARMINGDALE    CLEAR     75  55  49 CALM      29.90S
ISLIP          PTCLDY    71  55  56 N6        29.89S
SHIRLEY        CLEAR     67  56  67 CALM      29.91S
WESTHAMPTON    CLEAR     63  60  90 CALM      29.92S
MONTAUK POINT    N/A     73  66  78 CALM      29.91F
$$

NYZ052-065-067-050500-
HUDSON VALLEY

CITY           SKY/WX    TMP DP  RH WIND       PRES   REMARKS
WHITE PLAINS   CLEAR     70  58  65 NW3       29.92S
NEWBURGH       MOCLDY    73  61  64 W7        29.94S
MONTGOMERY     CLEAR     64  59  83 CALM      29.93R
POUGHKEEPSIE   CLEAR     68  61  78 CALM      29.91S
ALBANY         PTCLDY    67  55  65 CALM      29.91S
$$

NJZ001-105-106-008-010-013-015-019>022-104-050500-
NEW JERSEY

CITY           SKY/WX    TMP DP  RH WIND       PRES   REMARKS
NEWARK/LIBERTY PTCLDY    79  56  45 N6        29.90S
TETERBORO      CLEAR     78  55  44 CALM      29.90R
CALDWELL       CLEAR     71  57  61 S3        29.92R
MORRISTOWN     CLEAR     66  57  72 CALM      29.92R
SOMERVILLE     CLEAR     62  58  86 CALM      29.90R
SUSSEX         CLEAR     64  60  87 CALM      29.94R
ANDOVER          N/A     64  62  93 CALM      29.95R
TRENTON        CLEAR     73  54  51 CALM      29.91R
MILLVILLE      CLOUDY    73  70  90 NE3       29.91F
ATLANTIC CITY  CLOUDY    75  72  90 S6        29.91F
WRIGHTSTOWN    MOCLDY    73  57  57 CALM      29.89S
TOMS RIVER       N/A     70  64  83 SE6       29.93R
BELMAR         CLOUDY    75  55  50 CALM      29.92R
$$

PAZ047>061-062-071-050500-
EASTERN PENNSYLVANIA

CITY           SKY/WX    TMP DP  RH WIND       PRES   REMARKS
PHILADELPHIA   PTCLDY    81  52  36 CALM      29.91R
ALLENTOWN      PTCLDY    66  57  72 CALM      29.92S
SCRANTON       PTCLDY    68  56  65 E7        29.95R
$$

CTZ002-004>006-009-010-012-RIZ004-006-007-MAZ004-011-015-050500-
SOUTHERN NEW ENGLAND
 IN CT

CITY           SKY/WX    TMP DP  RH WIND       PRES   REMARKS
BRADLEY INTL   MOCLDY    69  62  78 W3        29.91S
HARTFORD       CLEAR     71  63  75 CALM      29.90S
DANBURY        CLEAR     65  59  81 SW5       29.94S
WTRBRY/OXFORD  CLEAR     64  55  72 N3        29.95S
BRIDGEPORT     CLEAR     75  61  61 N6        29.90S
MERIDEN        FAIR      67  61  81 CALM      29.91S
NEW HAVEN      CLEAR     70  61  73 CALM      29.90F
CHESTER        FAIR      70  63  78 CALM      29.92F
GROTON         CLEAR     69  65  86 CALM      29.90R
WILLIMANTIC    CLEAR     67  65  93 CALM      29.91S

 IN RI

CITY           SKY/WX    TMP DP  RH WIND       PRES   REMARKS
PROVIDENCE     CLEAR     72  64  76 NW6       29.90S
BLOCK ISLAND     N/A     70  68  94 W5        29.91S
WESTERLY       CLEAR     69  66  90 CALM      29.91R

 IN MA

CITY           SKY/WX    TMP DP  RH WIND       PRES   REMARKS
BOSTON         CLEAR     70  66  87 SW6       29.88S
WORCESTER      CLEAR     67  60  78 W9        29.92F
WESTFIELD      PTCLDY    63  62  97 SE3       29.91S
PROVINCETOWN   CLEAR     68  61  77 CALM      29.89R
NANTUCKET      CLOUDY    75  73  93 SW14      29.89S FOG
$$

ANZ330-335-338-340-345-350-353-355-050500-
COASTAL MARINE OBSERVATIONS


STATION/POSITION TIME  SKY/WX   TEMP    WIND        PRES    VSBY  WAVE
                                AIR SEA DIR/SP/G                  HT/PER
                 (UTC)          (F)     (DEG/KT/KT) (MB)    (MI)  (FT/S)
NY HARB ENTRANCE 0250            77 76  290/  4/  4 1012.0          4/ 8
4S FIRE IS       NOT AVBL
20S FIRE ISLAND  0250            76 75  230/  6/  6 1012.4          6/ 8
GREAT SOUTH BAY  0330            81 81  250/  4/  6   N/A
23SW MTP         0350            76 74  240/ 10/ 12 1012.0          6/ 8
HUDSON CANYON    NOT AVBL
KINGS POINT      0300            78 70   10/  5/  8 1011.8
EXECUTION ROCKS  0300            77     300/  4/  4   N/A
CENTRAL LI SOUND NOT AVBL
EASTERN LI SOUND 0300            74 69  360/  2/  4   N/A
ROBBINS REEF     0300            81     260/  6/  7 1011.5
$$


>>>>>>>>>>>>>>>>>>>>>>>>>>>> KEY <<<<<<<<<<<<<<<<<<<<<<<<<<<
>                                                          <
>     SKY/WX - SKY CONDITION/PRESENT WEATHER               <
>     TMP    - TEMPERATURE IN FAHRENHEIT                   <
>     DP     - DEWPOINT IN FAHRENHEIT                      <
>     RH     - RELATIVE HUMIDITY IN PERCENT                <
>     WIND   - DIRECTION AND SPEED IN MPH                  <
>     PRES   - MEAN SEA LEVEL PRESSURE IN INCHES OF HG     <
>     WCI    - WIND CHILL INDEX                            <
>     VSB    - VISIBILITY IN MILES                         <
>     HX     - HEAT INDEX                                  <
>     TC     - TEMPERATURE IN CELSIUS                      <
>     VRB    - VARIABLE WIND DIRECTION                     <
>                                                          <
>>>>>>>>>>>>>>>>>>>>>>>>>>>> KEY <<<<<<<<<<<<<<<<<<<<<<<<<<<




USA.gov is the U.S. government's official web portal to all federal, state and local government web resources and services.